Youngstown, OH

1:43 PM EDT on May 29, 2017 (GMT -0400)
Youngstown-Warren Regional

Weather History for KYNG - July, 2013

Change the Weather History Date:

Thursday, July 18, 2013

  Actual Average Record
Temperature  
Mean Temperature 81 °F 71 °F  
Max Temperature 91 °F 82 °F 98 °F (1942)
Min Temperature 71 °F 60 °F 44 °F (1971)
Degree Days  
Heating Degree Days 0 0  
Month to date heating degree days 0 8  
Since 1 June heating degree days 56 77  
Since 1 July heating degree days 0 8  
Cooling Degree Days 16 6  
Month to date cooling degree days 174 108  
Year to date cooling degree days 380 257  
Since 1 June cooling degree days 292 218  
Growing Degree Days 31 (Base 50)    
Moisture  
Dew Point 73 °F    
Average Humidity 75    
Maximum Humidity 94    
Minimum Humidity 56    
Precipitation  
Precipitation 0.00 in 0.15 in 0.76 in (1959)
Month to date precipitation 4.90 2.54  
Year to date precipitation 22.04 21.21  
Snow  
Snow 0.00 in 0.00 in - ()
Month to date snowfall 0.0 0.0  
Since 1 June snowfall T 0.0  
Since 1 July snowfall 0.0 0.0  
Snow Depth 0.00 in    
Sea Level Pressure  
Sea Level Pressure 30.11 in    
Wind  
Wind Speed 4 mph (West)    
Max Wind Speed 14 mph    
Max Gust Speed 17 mph    
Visibility 9 miles    
Events      
T = Trace of Precipitation, MM = Missing Value Source: NWS Daily Summary

Daily Weather History Graph

Daily Weather History Graph

Search for Another Location

Airport or City:

Trip Planner

Search our weather history database for the weather conditions in past years. The results will help you decide how hot, cold, wet, or windy it might be!

Date:

Astronomy

Jul. 18, 2013 Rise Set
Actual Time 6:05 AM EDT 8:52 PM EDT
Civil Twilight 5:32 AM EDT 9:24 PM EDT
Nautical Twilight 4:52 AM EDT 10:05 PM EDT
Astronomical Twilight 4:05 AM EDT 10:51 PM EDT
Moon 4:47 PM EDT (7/18) 1:55 AM EDT (7/18)
Length of Visible Light 15h 51m
Length of Day
14h 46m
Waxing Gibbous, 77% of the Moon is Illuminated
Jul 18
Waxing Gibbous
Jul 22
Full
Jul 29
Last Quarter
Aug 6
New
Aug 14
First Quarter

Hourly Weather History & Observations

Time (EDT) Temp. Heat Index Dew Point Humidity Pressure Visibility Wind Dir Wind Speed Gust Speed Precip Events Conditions
12:51 AM 71.1 °F - 69.1 °F 93% 30.18 in 10.0 mi Calm Calm - N/A   Scattered Clouds
1:51 AM 73.0 °F - 69.1 °F 87% 30.17 in 10.0 mi SSW 3.5 mph - N/A   Mostly Cloudy
2:51 AM 73.9 °F - 70.0 °F 87% 30.15 in 10.0 mi SW 3.5 mph - N/A   Scattered Clouds
3:51 AM 73.9 °F - 70.0 °F 87% 30.15 in 9.0 mi Calm Calm - N/A   Scattered Clouds
4:51 AM 72.0 °F - 70.0 °F 93% 30.15 in 7.0 mi WSW 3.5 mph - N/A   Clear
5:51 AM 72.0 °F - 70.0 °F 93% 30.14 in 5.0 mi SSW 3.5 mph - N/A   Partly Cloudy
6:51 AM 73.0 °F - 71.1 °F 93% 30.14 in 5.0 mi Calm Calm - N/A   Partly Cloudy
7:51 AM 75.9 °F - 73.0 °F 91% 30.15 in 6.0 mi WSW 3.5 mph - N/A   Clear
8:51 AM 81.0 °F 86.2 °F 73.9 °F 79% 30.14 in 7.0 mi WNW 4.6 mph - N/A   Clear
9:51 AM 84.0 °F 91.9 °F 75.0 °F 74% 30.14 in 7.0 mi NW 4.6 mph - N/A   Clear
10:51 AM 84.9 °F 93.3 °F 75.0 °F 72% 30.14 in 10.0 mi SW 4.6 mph - N/A   Scattered Clouds
11:21 AM 87.8 °F 95.6 °F 73.4 °F 62% 30.17 in 10.0 mi Calm Calm - N/A   Mostly Cloudy
11:51 AM 87.1 °F 95.4 °F 73.9 °F 65% 30.14 in 10.0 mi Calm Calm - N/A   Mostly Cloudy
12:27 PM 87.8 °F 95.6 °F 73.4 °F 62% 30.16 in 10.0 mi Calm Calm - N/A   Mostly Cloudy
12:51 PM 88.0 °F 97.5 °F 75.0 °F 65% 30.13 in 10.0 mi West 6.9 mph - N/A   Mostly Cloudy
1:51 PM 88.0 °F 95.6 °F 73.0 °F 61% 30.11 in 10.0 mi West 9.2 mph - N/A   Mostly Cloudy
2:51 PM 90.0 °F 99.0 °F 73.9 °F 59% 30.09 in 10.0 mi WNW 8.1 mph - N/A   Mostly Cloudy
3:51 PM 89.1 °F 97.0 °F 73.0 °F 59% 30.07 in 10.0 mi WNW 11.5 mph - N/A   Mostly Cloudy
4:51 PM 90.0 °F 97.9 °F 73.0 °F 57% 30.06 in 10.0 mi NW 9.2 mph - N/A   Scattered Clouds
5:51 PM 90.0 °F 96.9 °F 72.0 °F 55% 30.04 in 10.0 mi West 6.9 mph - N/A   Scattered Clouds
6:51 PM 89.1 °F 96.0 °F 72.0 °F 57% 30.04 in 10.0 mi WNW 4.6 mph - N/A   Scattered Clouds
7:51 PM 88.0 °F 96.5 °F 73.9 °F 63% 30.04 in 10.0 mi Calm Calm - N/A   Scattered Clouds
8:51 PM 82.0 °F 86.7 °F 72.0 °F 71% 30.02 in 10.0 mi Calm Calm - N/A   Scattered Clouds
9:51 PM 77.0 °F - 73.9 °F 90% 30.03 in 7.0 mi Calm Calm - N/A   Scattered Clouds
10:51 PM 77.0 °F - 73.0 °F 88% 30.02 in 8.0 mi Calm Calm - N/A   Partly Cloudy
11:51 PM 77.0 °F - 72.0 °F 84% 30.02 in 8.0 mi SSW 3.5 mph - N/A   Partly Cloudy